Weather History for Homer, AK

Change the Weather History Date:

Monday, October 8, 2012

  Actual Average Record
Temperature  
Mean Temperature 46 °F -  
Max Temperature 53 °F 47 °F 56 °F (1993)
Min Temperature 39 °F 35 °F 19 °F (1951)
Degree Days  
Heating Degree Days 20    
Moisture  
Dew Point 43 °F    
Average Humidity 85    
Maximum Humidity 93    
Minimum Humidity 74    
Precipitation  
Precipitation 0.00 in - - ()
Sea Level Pressure  
Sea Level Pressure 30.21 in    
Wind  
Wind Speed 4 mph (WSW)    
Max Wind Speed 12 mph    
Max Gust Speed -    
Visibility 8 miles    
Events Fog    
Averages and records for this station are not official NWS values.
T = Trace of Precipitation, MM = Missing Value Source: NWS Daily Summary

Daily Weather History Graph

Daily Weather History Graph

Search for Another Location

Airport:

Trip Planner

Search our weather history database for the weather conditions in past years. The results will help you decide how hot, cold, wet, or windy it might be!

Date:

Astronomy

Oct. 08, 2012 Rise Set
Actual Time 8:29 AM AKDT 7:15 PM AKDT
Civil Twilight 7:48 AM AKDT 7:56 PM AKDT
Nautical Twilight 7:00 AM AKDT 8:44 PM AKDT
Astronomical Twilight 6:11 AM AKDT 9:33 PM AKDT
Moon No Moon Rise 4:40 PM AKDT (10/8)
Length of Visible Light 12h 08m
Length of Day
10h 46m
Last Quarter, 45% of the Moon is Illuminated
Oct 8
Last Quarter
Oct 15
New
Oct 21
First Quarter
Oct 29
Full
Nov 6
Last Quarter

Hourly Weather History & Observations

Time (AKDT) Temp. Windchill Dew Point Humidity Pressure Visibility Wind Dir Wind Speed Gust Speed Precip Events Conditions
12:53 AM 52.0 °F - 45.0 °F 77% 30.26 in 10.0 mi West 4.6 mph - N/A   Clear
1:53 AM 45.0 °F 43.5 °F 41.0 °F 86% 30.25 in 10.0 mi NE 3.5 mph - N/A   Clear
2:53 AM 48.0 °F - 44.1 °F 86% 30.25 in 10.0 mi WNW 3.5 mph - N/A   Clear
3:53 AM 45.0 °F - 42.1 °F 90% 30.23 in 10.0 mi Calm Calm - N/A   Clear
4:53 AM 43.0 °F - 41.0 °F 93% 30.22 in 2.0 mi Calm Calm - N/A   Clear
4:57 AM 44.6 °F - 41.0 °F 87% 30.22 in 0.8 mi Calm Calm - N/A   Clear
5:16 AM 42.8 °F - 39.2 °F 87% 30.22 in 1.0 mi Calm Calm - N/A   Clear
5:37 AM 42.8 °F 41.1 °F 39.2 °F 87% 30.22 in 0.8 mi ENE 3.5 mph - N/A   Clear
5:46 AM 42.8 °F - 39.2 °F 87% 30.22 in 1.0 mi Calm Calm - N/A   Mist
5:53 AM 43.0 °F - 39.9 °F 89% 30.22 in 10.0 mi Calm Calm - N/A Fog Patches of Fog
6:53 AM 43.0 °F - 39.9 °F 89% 30.21 in 10.0 mi Calm Calm - N/A Fog Patches of Fog
7:53 AM 39.0 °F 36.8 °F 37.0 °F 93% 30.21 in 10.0 mi ENE 3.5 mph - N/A Fog Patches of Fog
8:53 AM 41.0 °F - 37.9 °F 89% 30.22 in 10.0 mi Calm Calm - N/A Fog Patches of Fog
9:53 AM 44.1 °F - 41.0 °F 89% 30.22 in 10.0 mi Calm Calm - N/A Fog Patches of Fog
10:53 AM 46.9 °F - 44.1 °F 90% 30.22 in 10.0 mi ENE 4.6 mph - N/A   Scattered Clouds
11:53 AM 50.0 °F - 43.0 °F 77% 30.21 in 10.0 mi East 4.6 mph - N/A   Scattered Clouds
12:53 PM 52.0 °F - 44.1 °F 74% 30.21 in 10.0 mi SE 3.5 mph - N/A   Partly Cloudy
1:53 PM 51.1 °F - 45.0 °F 80% 30.21 in 10.0 mi SSE 4.6 mph - N/A   Clear
2:53 PM 52.0 °F - 46.0 °F 80% 30.19 in 10.0 mi West 10.4 mph - N/A   Clear
3:53 PM 52.0 °F - 46.0 °F 80% 30.19 in 10.0 mi WSW 11.5 mph - N/A   Clear
4:53 PM 51.1 °F - 45.0 °F 80% 30.18 in 10.0 mi WSW 11.5 mph - N/A   Clear
5:53 PM 48.9 °F - 44.1 °F 83% 30.18 in 10.0 mi West 9.2 mph - N/A   Clear
6:13 PM 48.2 °F - 44.6 °F 87% 30.18 in 10.0 mi West 9.2 mph - N/A   Mostly Cloudy
6:21 PM 48.2 °F - 44.6 °F 87% 30.18 in 10.0 mi West 9.2 mph - N/A   Overcast
6:53 PM 48.9 °F - 44.1 °F 83% 30.19 in 10.0 mi WSW 8.1 mph - N/A   Overcast
7:00 PM 48.2 °F - 44.6 °F 87% 30.18 in 10.0 mi West 9.2 mph - N/A   Overcast
7:53 PM 48.0 °F - 44.1 °F 86% 30.19 in 10.0 mi West 6.9 mph - N/A   Overcast
8:53 PM 48.0 °F - 44.1 °F 86% 30.18 in 10.0 mi WSW 6.9 mph - N/A   Overcast
9:19 PM 48.2 °F - 44.6 °F 87% 30.18 in 10.0 mi WSW 6.9 mph - N/A   Overcast
9:53 PM 48.0 °F - 44.1 °F 86% 30.19 in 7.0 mi WSW 3.5 mph - N/A   Overcast
10:27 PM 48.2 °F - 44.6 °F 87% 30.19 in 9.0 mi West 3.5 mph - N/A   Overcast
10:53 PM 48.0 °F - 44.1 °F 86% 30.19 in 10.0 mi WSW 3.5 mph - N/A   Overcast